Location: Sobotiste
(48.7170°N, 17.4000°E)
Time: 22:44:02
(UTC+02:00)

ITUPSAT 1 - Pass Details

Date: 23 March 2026
Orbit: 686 x 698 km, 98.4° (Epoch: 21 April)

Event Time Altitude Azimuth Distance (km) Brightness Sun altitude
Rises 00:53:25 0° 2° (N) 3,071 ? -38.9°
Reaches altitude 10° 00:56:15 10° 344° (NNW) 2,148 ? -38.7°
Enters shadow 00:56:38 11° 341° (NNW) 2,047 ? -38.7°
